DW0268 Weather Reports


time (UTC)temp
C
wind
direction
speed
KPH
gust
KPH
rain 1hr
cm
rain 24hr
cm
rain mn
cm
humidity
%
barometer
mb
20260904040037 28 166 0.0 1.6 0.00 0.00 0.00 81 1016.4
20260904034534 28 166 0.0 0.0 0.00 0.00 0.00 80 1016.5
20260904033039 28 166 0.0 1.6 0.00 0.00 0.00 79 1016.6
20260904031533 29 166 0.0 1.6 0.00 0.00 0.00 79 1016.7
20260904030032 30 166 0.0 1.6 0.00 0.00 0.00 78 1016.5
20260904024532 30 166 0.0 3.2 0.00 0.00 0.00 77 1016.5
20260904023032 30 166 0.0 1.6 0.00 0.00 0.00 76 1016.6
20260904021533 30 166 0.0 1.6 0.00 0.00 0.00 76 1016.5
20260904020030 30 166 1.6 4.8 0.00 0.00 0.00 74 1016.6
20260904014540 30 166 3.2 6.4 0.00 0.00 0.00 73 1016.3
20260904013032 31 166 0.0 1.6 0.00 0.00 0.00 72 1016.1
20260904011528 31 166 1.6 6.4 0.00 0.00 0.00 70 1016.1
20260904010028 32 166 3.2 6.4 0.00 0.00 0.00 68 1016.0
20260904004528 32 166 4.8 8.0 0.00 0.00 0.00 66 1015.8
20260904003028 33 166 0.0 3.2 0.00 0.00 0.00 66 1015.7
20260904001526 33 166 6.4 8.0 0.00 0.00 0.00 64 1015.5
20260904000026 35 165 0.0 3.2 0.00 0.00 0.00 65 1015.6
20260903234524 35 165 1.6 4.8 0.00 0.00 0.00 57 1015.5
20260903233024 35 166 3.2 4.8 0.00 0.00 0.00 57 1015.4
20260903231523 36 161 3.2 8.0 0.00 0.00 0.00 57 1015.3
20260903230042 36 163 4.8 9.7 0.00 0.00 0.00 55 1015.3
20260903224527 36 128 3.2 9.7 0.00 0.00 0.00 56 1015.3
20260903223021 36 186 6.4 9.7 0.00 0.00 0.00 56 1015.4
20260903221521 36 192 6.4 9.7 0.00 0.00 0.00 57 1015.4
20260903220020 35 196 8.0 14.5 0.00 0.00 0.00 56 1015.4
20260903214535 36 199 11.3 17.7 0.00 0.00 0.00 55 1015.4
20260903213021 36 186 6.4 11.3 0.00 0.00 0.00 54 1015.5
20260903211516 36 227 8.0 14.5 0.00 0.00 0.00 55 1015.6
20260903210014 36 213 4.8 16.1 0.00 0.00 0.00 53 1015.8
20260903204512 36 150 4.8 14.5 0.00 0.00 0.00 55 1016.0
20260903203010 36 217 9.7 19.3 0.00 0.00 0.00 52 1016.0
20260903201506 36 196 9.7 14.5 0.00 0.00 0.00 53 1016.3
20260903200006 36 199 8.0 20.9 0.00 0.00 0.00 52 1016.5
20260903194502 36 235 9.7 17.7 0.00 0.00 0.00 55 1016.6
20260903193118 36 239 8.0 17.7 0.00 0.00 0.00 56 1016.8
20260903191606 36 220 14.5 19.3 0.00 0.00 0.00 56 1017.0
20260903184554 35 191 9.7 30.6 0.00 0.00 0.00 54 1017.1
20260903183052 35 188 12.9 19.3 0.00 0.00 0.00 57 1017.1
20260903181557 35 207 12.9 19.3 0.00 0.00 0.00 58 1017.4
20260903180058 35 190 8.0 19.3 0.00 0.00 0.00 59 1017.5
20260903174546 35 245 12.9 22.5 0.00 0.00 0.00 60 1017.7
20260903173052 35 155 6.4 19.3 0.00 0.00 0.00 59 1017.7
20260903171542 35 168 3.2 14.5 0.00 0.00 0.00 60 1017.9
20260903170118 35 255 8.0 14.5 0.00 0.00 0.00 60 1018.2
20260903164539 35 154 1.6 6.4 0.00 0.00 0.00 62 1018.3
20260903163032 33 171 6.4 14.5 0.00 0.00 0.00 65 1018.4
20260903161529 33 267 4.8 9.7 0.00 0.00 0.00 65 1018.4
20260903160030 33 267 1.6 4.8 0.00 0.00 0.00 66 1018.5
20260903154519 33 237 3.2 6.4 0.00 0.00 0.00 67 1018.4
20260903153014 32 262 3.2 6.4 0.00 0.00 0.00 70 1018.4
20260903151511 32 254 0.0 3.2 0.00 0.00 0.00 72 1018.5
20260903150011 31 230 1.6 6.4 0.00 0.00 0.00 74 1018.5
20260903144504 30 217 1.6 8.0 0.00 0.00 0.00 78 1018.5
20260903143101 30 210 1.6 6.4 0.00 0.00 0.00 79 1018.5
20260903141556 28 200 1.6 8.0 0.00 0.00 0.00 81 1018.5
20260903140059 28 238 3.2 6.4 0.00 0.00 0.00 83 1018.6
20260903134553 27 255 4.8 11.3 0.00 0.00 0.00 84 1018.7
20260903133048 26 241 4.8 9.7 0.00 0.00 0.00 88 1018.7
20260903131547 26 223 3.2 9.7 0.00 0.00 0.00 89 1018.7
20260903130048 25 194 3.2 6.4 0.00 0.00 0.00 90 1018.7
20260903124545 24 144 1.6 3.2 0.00 0.00 0.00 91 1018.6
20260903123044 24 144 0.0 3.2 0.00 0.00 0.00 91 1018.5
20260903121543 23 144 1.6 4.8 0.00 0.00 0.00 91 1018.5
20260903120048 23 144 0.0 0.0 0.00 0.00 0.00 91 1018.3
20260903114600 23 144 1.6 3.2 0.00 0.00 0.00 90 1018.2
20260903113040 23 144 0.0 0.0 0.00 0.00 0.00 90 1018.2
20260903111538 23 144 0.0 3.2 0.00 0.00 0.00 90 1018.1
20260903110037 24 144 0.0 1.6 0.00 0.00 0.00 90 1018.0
20260903104536 24 144 0.0 1.6 0.00 0.00 0.00 89 1017.8
20260903103034 24 144 0.0 3.2 0.00 0.00 0.00 89 1017.8
20260903101531 24 144 0.0 3.2 0.00 0.00 0.00 89 1017.6
20260903100033 24 142 1.6 3.2 0.00 0.00 0.00 89 1017.6
20260903094537 24 140 1.6 4.8 0.00 0.00 0.00 89 1017.5
20260903093042 25 140 0.0 3.2 0.00 0.00 0.00 88 1017.6
20260903091527 25 140 1.6 3.2 0.00 0.00 0.00 87 1017.5
20260903090028 25 139 1.6 4.8 0.00 0.00 0.00 86 1017.4
20260903084531 25 140 3.2 6.4 0.00 0.00 0.00 86 1017.3
20260903083024 25 145 0.0 3.2 0.00 0.00 0.00 87 1017.4
20260903081523 25 143 1.6 4.8 0.00 0.00 0.00 87 1017.2
20260903080023 25 138 0.0 3.2 0.00 0.00 0.00 88 1017.1
20260903074522 25 138 1.6 3.2 0.00 0.00 0.00 88 1017.2
20260903073122 25 138 0.0 1.6 0.00 0.00 0.00 87 1017.2
20260903071520 25 137 0.0 4.8 0.00 0.00 0.00 87 1017.2
20260903070021 25 136 1.6 4.8 0.00 0.00 0.00 87 1017.3
20260903064515 26 129 3.2 6.4 0.00 0.00 0.00 86 1017.2
20260903063011 26 115 0.0 3.2 0.00 0.00 0.00 85 1017.4
20260903061511 26 115 1.6 4.8 0.00 0.00 0.00 85 1017.5
20260903060013 26 117 3.2 6.4 0.00 0.00 0.00 84 1017.4
20260903054510 26 118 3.2 4.8 0.00 0.00 0.00 84 1017.4
20260903053004 26 120 3.2 6.4 0.00 0.00 0.00 83 1017.6
20260903051503 27 115 3.2 6.4 0.00 0.00 0.00 82 1017.6
20260903050059 27 115 4.8 6.4 0.00 0.00 0.00 80 1017.5
20260903044602 27 119 3.2 4.8 0.00 0.00 0.00 79 1017.4
20260903043057 27 145 1.6 4.8 0.00 0.00 0.00 79 1017.5
20260903041556 27 145 0.0 1.6 0.00 0.00 0.00 79 1017.5